Time,TemperatureF,DewpointF,PressureIn,WindDirection,WindDirectionDegrees,WindSpeedMPH,WindSpeedGustMPH,Humidity,HourlyPrecipIn,Conditions,Clouds,dailyrainin,SoftwareType,DateUTC
2013-07-15 00:01:00,72.7,72.7,30.31,ESE,107,0.0,0.0,100,0.00,,CLR,0.00,VWS V14.00,2013-07-15 04:01:00,
2013-07-15 00:06:00,72.7,72.7,30.31,ESE,107,0.0,0.0,100,0.00,,CLR,0.00,VWS V14.00,2013-07-15 04:06:00,
2013-07-15 00:11:00,73.0,73.0,30.31,ESE,107,0.0,0.0,100,0.00,,CLR,0.00,VWS V14.00,2013-07-15 04:11:00,
2013-07-15 00:16:00,72.8,72.8,30.31,ESE,107,0.0,0.0,100,0.00,,CLR,0.00,VWS V14.00,2013-07-15 04:16:00,
2013-07-15 00:21:00,72.5,72.5,30.30,ESE,107,0.0,0.0,100,0.00,,CLR,0.00,VWS V14.00,2013-07-15 04:21:00,
2013-07-15 00:26:00,72.3,72.3,30.31,ESE,107,0.0,0.0,100,0.00,,CLR,0.00,VWS V14.00,2013-07-15 04:26:00,
2013-07-15 00:31:00,72.2,72.2,30.31,ESE,107,0.0,0.0,100,0.00,,CLR,0.00,VWS V14.00,2013-07-15 04:31:00,
2013-07-15 00:36:00,72.0,72.0,30.31,ESE,107,0.0,0.0,100,0.00,,CLR,0.00,VWS V14.00,2013-07-15 04:36:00,
2013-07-15 00:41:00,71.9,71.9,30.31,ESE,107,0.0,0.0,100,0.00,,CLR,0.00,VWS V14.00,2013-07-15 04:41:00,
2013-07-15 00:46:00,71.8,71.8,30.31,ESE,107,0.0,0.0,100,0.00,,CLR,0.00,VWS V14.00,2013-07-15 04:46:00,
2013-07-15 00:51:00,71.7,71.7,30.31,ESE,107,0.0,0.0,100,0.00,,CLR,0.00,VWS V14.00,2013-07-15 04:51:00,
2013-07-15 00:56:00,71.7,71.7,30.31,ESE,107,0.0,0.0,100,0.00,,CLR,0.00,VWS V14.00,2013-07-15 04:56:00,
2013-07-15 01:01:00,71.6,71.6,30.31,ESE,107,0.0,0.0,100,0.00,,FEW033,0.00,VWS V14.00,2013-07-15 05:01:00,
2013-07-15 01:06:00,71.6,71.6,30.31,ESE,107,0.0,0.0,100,0.00,,FEW033,0.00,VWS V14.00,2013-07-15 05:06:00,
2013-07-15 01:11:00,71.5,71.5,30.31,ESE,107,0.0,0.0,100,0.00,,FEW033,0.00,VWS V14.00,2013-07-15 05:11:00,
2013-07-15 01:16:00,71.3,71.3,30.31,ESE,107,0.0,0.0,100,0.00,,FEW033,0.00,VWS V14.00,2013-07-15 05:16:00,
2013-07-15 01:21:00,71.2,71.2,30.31,ESE,107,0.0,0.0,100,0.00,,FEW033,0.00,VWS V14.00,2013-07-15 05:21:00,
2013-07-15 01:26:00,71.2,71.2,30.31,ESE,107,0.0,0.0,100,0.00,,FEW033,0.00,VWS V14.00,2013-07-15 05:26:00,
2013-07-15 01:31:00,71.2,71.2,30.31,ESE,107,0.0,0.0,100,0.00,,FEW033,0.00,VWS V14.00,2013-07-15 05:31:00,
2013-07-15 01:36:00,71.2,71.2,30.31,ESE,107,0.0,0.0,100,0.00,,FEW033,0.00,VWS V14.00,2013-07-15 05:36:00,
2013-07-15 01:41:00,71.2,71.2,30.31,ESE,107,0.0,0.0,100,0.00,,FEW033,0.00,VWS V14.00,2013-07-15 05:41:00,
2013-07-15 01:46:00,71.0,71.0,30.31,ESE,107,0.0,0.0,100,0.00,,FEW033,0.00,VWS V14.00,2013-07-15 05:46:00,
2013-07-15 01:51:00,70.9,70.9,30.31,ESE,107,0.0,0.0,100,0.00,,FEW033,0.00,VWS V14.00,2013-07-15 05:51:00,
2013-07-15 01:56:00,70.7,70.7,30.31,ESE,107,0.0,0.0,100,0.00,,FEW033,0.00,VWS V14.00,2013-07-15 05:56:00,
2013-07-15 02:01:00,70.8,70.8,30.32,ESE,107,0.0,0.0,100,0.00,,SCT031,0.00,VWS V14.00,2013-07-15 06:01:00,
2013-07-15 02:06:00,70.7,70.7,30.32,ESE,107,0.0,0.0,100,0.00,,SCT031,0.00,VWS V14.00,2013-07-15 06:06:00,
2013-07-15 02:11:00,70.6,70.6,30.32,ESE,107,0.0,0.0,100,0.00,,SCT031,0.00,VWS V14.00,2013-07-15 06:11:00,
2013-07-15 02:16:00,70.6,70.6,30.32,ESE,107,0.0,0.0,100,0.00,,SCT031,0.00,VWS V14.00,2013-07-15 06:16:00,
2013-07-15 02:21:00,70.6,70.6,30.31,ESE,107,0.0,0.0,100,0.00,,SCT031,0.00,VWS V14.00,2013-07-15 06:21:00,
2013-07-15 02:26:00,70.5,70.5,30.31,ESE,107,0.0,0.0,100,0.00,,SCT031,0.00,VWS V14.00,2013-07-15 06:26:00,
2013-07-15 02:31:00,70.5,70.5,30.31,ESE,107,0.0,0.0,100,0.00,,SCT031,0.00,VWS V14.00,2013-07-15 06:31:00,
2013-07-15 02:36:00,70.4,70.4,30.31,ESE,107,0.0,0.0,100,0.00,,SCT031,0.00,VWS V14.00,2013-07-15 06:36:00,
2013-07-15 02:41:00,70.3,70.3,30.31,ESE,107,0.0,0.0,100,0.00,,SCT031,0.00,VWS V14.00,2013-07-15 06:41:00,
2013-07-15 02:46:00,70.2,70.2,30.31,ESE,107,0.0,0.0,100,0.00,,SCT031,0.00,VWS V14.00,2013-07-15 06:46:00,
2013-07-15 02:51:00,70.1,70.1,30.31,ESE,107,0.0,0.0,100,0.00,,SCT031,0.00,VWS V14.00,2013-07-15 06:51:00,
2013-07-15 02:56:00,70.1,70.1,30.31,ESE,107,0.0,0.0,100,0.00,,SCT031,0.00,VWS V14.00,2013-07-15 06:56:00,
2013-07-15 03:01:00,70.0,70.0,30.31,ESE,107,0.0,0.0,100,0.00,,CLR,0.00,VWS V14.00,2013-07-15 07:01:00,
2013-07-15 03:06:00,69.9,69.9,30.31,ESE,107,0.0,0.0,100,0.00,,CLR,0.00,VWS V14.00,2013-07-15 07:06:00,
2013-07-15 03:11:00,69.8,69.8,30.31,ESE,107,0.0,0.0,100,0.00,,CLR,0.00,VWS V14.00,2013-07-15 07:11:00,
2013-07-15 03:16:00,69.7,69.7,30.31,ESE,107,0.0,0.0,100,0.00,,CLR,0.00,VWS V14.00,2013-07-15 07:16:00,
2013-07-15 03:21:00,69.6,69.6,30.31,ESE,107,0.0,0.0,100,0.00,,CLR,0.00,VWS V14.00,2013-07-15 07:21:00,
2013-07-15 03:26:00,69.5,69.5,30.31,ESE,107,0.0,0.0,100,0.00,,CLR,0.00,VWS V14.00,2013-07-15 07:26:00,
2013-07-15 03:31:00,69.4,69.4,30.31,ESE,107,0.0,0.0,100,0.00,,CLR,0.00,VWS V14.00,2013-07-15 07:31:00,
2013-07-15 03:36:00,69.3,69.3,30.31,ESE,107,0.0,0.0,100,0.00,,CLR,0.00,VWS V14.00,2013-07-15 07:36:00,
2013-07-15 03:42:00,69.3,69.3,30.31,ESE,107,0.0,0.0,100,0.00,,CLR,0.00,VWS V14.00,2013-07-15 07:42:00,
2013-07-15 03:47:00,69.3,69.3,30.31,ESE,107,0.0,0.0,100,0.00,,CLR,0.00,VWS V14.00,2013-07-15 07:47:00,
2013-07-15 03:52:00,69.3,69.3,30.31,ESE,107,0.0,0.0,100,0.00,,CLR,0.00,VWS V14.00,2013-07-15 07:52:00,
2013-07-15 03:57:00,69.2,69.2,30.31,ESE,107,0.0,0.0,100,0.00,,CLR,0.00,VWS V14.00,2013-07-15 07:57:00,
2013-07-15 04:02:00,69.0,69.0,30.31,ESE,107,0.0,0.0,100,0.00,,CLR,0.00,VWS V14.00,2013-07-15 08:02:00,
2013-07-15 04:07:00,68.9,68.9,30.31,ESE,107,0.0,0.0,100,0.00,,CLR,0.00,VWS V14.00,2013-07-15 08:07:00,
2013-07-15 04:12:00,68.9,68.9,30.31,ESE,107,0.0,0.0,100,0.00,,CLR,0.00,VWS V14.00,2013-07-15 08:12:00,
2013-07-15 04:17:00,68.8,68.8,30.30,ESE,107,0.0,0.0,100,0.00,,CLR,0.00,VWS V14.00,2013-07-15 08:17:00,
2013-07-15 04:22:00,68.6,68.6,30.30,ESE,107,0.0,0.0,100,0.00,,CLR,0.00,VWS V14.00,2013-07-15 08:22:00,
2013-07-15 04:27:00,68.6,68.6,30.31,ESE,107,0.0,0.0,100,0.00,,CLR,0.00,VWS V14.00,2013-07-15 08:27:00,
2013-07-15 04:32:00,68.5,68.5,30.31,ESE,107,0.0,0.0,100,0.00,,CLR,0.00,VWS V14.00,2013-07-15 08:32:00,
2013-07-15 04:37:00,68.4,68.4,30.30,ESE,107,0.0,0.0,100,0.00,,CLR,0.00,VWS V14.00,2013-07-15 08:37:00,
2013-07-15 04:42:00,68.4,68.4,30.30,ESE,107,0.0,0.0,100,0.00,,CLR,0.00,VWS V14.00,2013-07-15 08:42:00,
2013-07-15 04:47:00,68.4,68.4,30.31,ESE,107,0.0,0.0,100,0.00,,CLR,0.00,VWS V14.00,2013-07-15 08:47:00,
2013-07-15 04:52:00,68.3,68.3,30.30,ESE,107,0.0,1.0,100,0.00,,CLR,0.00,VWS V14.00,2013-07-15 08:52:00,
2013-07-15 04:57:00,68.4,68.4,30.31,ESE,107,0.0,1.0,100,0.00,,CLR,0.00,VWS V14.00,2013-07-15 08:57:00,
2013-07-15 05:02:00,68.3,68.3,30.31,ESE,107,0.0,0.0,100,0.00,,CLR,0.00,VWS V14.00,2013-07-15 09:02:00,
2013-07-15 05:07:00,68.3,68.3,30.31,East,85,0.0,0.0,100,0.00,,CLR,0.00,VWS V14.00,2013-07-15 09:07:00,
2013-07-15 05:12:00,68.2,68.2,30.31,East,85,0.0,0.0,100,0.00,,CLR,0.00,VWS V14.00,2013-07-15 09:12:00,
2013-07-15 05:17:00,68.1,68.1,30.31,East,85,0.0,0.0,100,0.00,,CLR,0.00,VWS V14.00,2013-07-15 09:17:00,
2013-07-15 05:22:00,68.0,68.0,30.31,East,84,0.0,0.0,100,0.00,,CLR,0.00,VWS V14.00,2013-07-15 09:22:00,
2013-07-15 05:27:00,68.0,68.0,30.31,East,84,0.0,0.0,100,0.00,,CLR,0.00,VWS V14.00,2013-07-15 09:27:00,
2013-07-15 05:32:00,67.9,67.9,30.31,East,84,0.0,0.0,100,0.00,,CLR,0.00,VWS V14.00,2013-07-15 09:32:00,
2013-07-15 05:37:00,67.8,67.8,30.31,East,84,0.0,0.0,100,0.00,,CLR,0.00,VWS V14.00,2013-07-15 09:37:00,
2013-07-15 05:42:00,67.8,67.8,30.31,East,84,0.0,0.0,100,0.00,,CLR,0.00,VWS V14.00,2013-07-15 09:42:00,
2013-07-15 05:47:00,67.7,67.7,30.31,East,84,0.0,0.0,100,0.00,,CLR,0.00,VWS V14.00,2013-07-15 09:47:00,
2013-07-15 05:52:00,67.6,67.6,30.31,East,84,0.0,0.0,100,0.00,,CLR,0.00,VWS V14.00,2013-07-15 09:52:00,
2013-07-15 05:57:00,67.6,67.6,30.31,East,84,0.0,0.0,100,0.00,,CLR,0.00,VWS V14.00,2013-07-15 09:57:00,
2013-07-15 06:02:00,67.5,67.5,30.32,East,84,0.0,0.0,100,0.00,,CLR,0.00,VWS V14.00,2013-07-15 10:02:00,
2013-07-15 06:07:00,67.5,67.5,30.32,East,84,0.0,0.0,100,0.00,,CLR,0.00,VWS V14.00,2013-07-15 10:07:00,
2013-07-15 06:12:00,67.5,67.5,30.32,East,84,0.0,0.0,100,0.00,,CLR,0.00,VWS V14.00,2013-07-15 10:12:00,
2013-07-15 06:17:00,67.5,67.5,30.32,East,84,0.0,0.0,100,0.00,,CLR,0.00,VWS V14.00,2013-07-15 10:17:00,
2013-07-15 06:22:00,67.6,67.6,30.32,East,84,0.0,0.0,100,0.00,,CLR,0.00,VWS V14.00,2013-07-15 10:22:00,
2013-07-15 06:27:00,67.7,67.7,30.32,East,84,0.0,0.0,100,0.00,,CLR,0.00,VWS V14.00,2013-07-15 10:27:00,
2013-07-15 06:32:00,67.8,67.8,30.32,East,84,0.0,0.0,100,0.00,,CLR,0.00,VWS V14.00,2013-07-15 10:32:00,
2013-07-15 06:37:00,67.8,67.8,30.32,East,84,0.0,0.0,100,0.00,,CLR,0.00,VWS V14.00,2013-07-15 10:37:00,
2013-07-15 06:42:00,67.8,67.8,30.32,East,84,0.0,0.0,100,0.00,,CLR,0.00,VWS V14.00,2013-07-15 10:42:00,
2013-07-15 06:47:00,67.9,67.9,30.32,East,83,0.0,0.0,100,0.00,,CLR,0.00,VWS V14.00,2013-07-15 10:47:00,
2013-07-15 06:52:00,67.9,67.9,30.32,East,83,0.0,0.0,100,0.00,,CLR,0.00,VWS V14.00,2013-07-15 10:52:00,
2013-07-15 06:57:00,67.9,67.9,30.32,East,83,0.0,0.0,100,0.00,,CLR,0.00,VWS V14.00,2013-07-15 10:57:00,
2013-07-15 07:02:00,67.9,67.9,30.33,East,83,0.0,0.0,100,0.00,,SCT010,0.00,VWS V14.00,2013-07-15 11:02:00,
2013-07-15 07:07:00,68.0,68.0,30.32,East,83,0.0,0.0,100,0.00,,SCT010,0.00,VWS V14.00,2013-07-15 11:07:00,
2013-07-15 07:12:00,68.1,68.1,30.33,East,83,0.0,0.0,100,0.00,,SCT010,0.00,VWS V14.00,2013-07-15 11:12:00,
2013-07-15 07:17:00,68.3,68.3,30.33,East,83,0.0,0.0,100,0.00,,SCT010,0.00,VWS V14.00,2013-07-15 11:17:00,
2013-07-15 07:22:00,68.6,68.6,30.33,East,83,0.0,0.0,100,0.00,,SCT010,0.00,VWS V14.00,2013-07-15 11:22:00,
2013-07-15 07:27:00,68.9,68.9,30.33,East,83,0.0,0.0,100,0.00,,SCT010,0.00,VWS V14.00,2013-07-15 11:27:00,
2013-07-15 07:32:00,69.1,69.1,30.33,East,83,0.0,0.0,100,0.00,,SCT010,0.00,VWS V14.00,2013-07-15 11:32:00,
2013-07-15 07:37:00,69.1,69.1,30.33,East,83,0.0,0.0,100,0.00,,SCT010,0.00,VWS V14.00,2013-07-15 11:37:00,
2013-07-15 07:42:00,69.2,69.2,30.33,East,82,0.0,0.0,100,0.00,,SCT010,0.00,VWS V14.00,2013-07-15 11:42:00,
2013-07-15 07:47:00,69.4,69.4,30.33,East,82,0.0,0.0,100,0.00,,SCT010,0.00,VWS V14.00,2013-07-15 11:47:00,
2013-07-15 07:52:00,70.0,70.0,30.33,East,82,0.0,0.0,100,0.00,,SCT010,0.00,VWS V14.00,2013-07-15 11:52:00,
2013-07-15 07:57:00,70.6,70.6,30.33,East,82,0.0,0.0,100,0.00,,SCT010,0.00,VWS V14.00,2013-07-15 11:57:00,
2013-07-15 08:02:00,71.2,71.2,30.33,East,82,0.0,0.0,100,0.00,,CLR,0.00,VWS V14.00,2013-07-15 12:02:00,
2013-07-15 08:07:00,72.2,72.2,30.33,East,82,0.0,0.0,100,0.00,,CLR,0.00,VWS V14.00,2013-07-15 12:07:00,
2013-07-15 08:12:00,73.1,73.1,30.33,East,82,0.0,0.0,100,0.00,,CLR,0.00,VWS V14.00,2013-07-15 12:12:00,
2013-07-15 08:17:00,73.7,73.7,30.33,East,82,0.0,0.0,100,0.00,,CLR,0.00,VWS V14.00,2013-07-15 12:17:00,
2013-07-15 08:22:00,74.2,74.2,30.33,East,82,0.0,0.0,100,0.00,,CLR,0.00,VWS V14.00,2013-07-15 12:22:00,
2013-07-15 08:27:00,74.6,74.6,30.33,East,82,0.0,0.0,100,0.00,,CLR,0.00,VWS V14.00,2013-07-15 12:27:00,
2013-07-15 08:32:00,74.9,74.9,30.34,ENE,62,0.0,0.0,100,0.00,,CLR,0.00,VWS V14.00,2013-07-15 12:32:00,
2013-07-15 08:37:00,75.1,75.1,30.34,NE,36,0.0,0.0,100,0.00,,CLR,0.00,VWS V14.00,2013-07-15 12:37:00,
2013-07-15 08:42:00,75.4,75.4,30.34,NE,36,0.0,0.0,100,0.00,,CLR,0.00,VWS V14.00,2013-07-15 12:42:00,
2013-07-15 08:47:00,75.7,75.7,30.34,North,360,0.0,0.0,100,0.00,,CLR,0.00,VWS V14.00,2013-07-15 12:47:00,
2013-07-15 08:52:00,76.3,76.0,30.34,NNW,338,0.0,0.0,99,0.00,,CLR,0.00,VWS V14.00,2013-07-15 12:52:00,
2013-07-15 08:57:00,76.6,75.7,30.34,NNW,340,0.0,0.0,97,0.00,,CLR,0.00,VWS V14.00,2013-07-15 12:57:00,
2013-07-15 09:02:00,76.5,75.3,30.34,NNW,338,0.0,0.0,96,0.00,,CLR,0.00,VWS V14.00,2013-07-15 13:02:00,
2013-07-15 09:07:00,76.5,75.9,30.34,NNW,336,0.0,0.0,98,0.00,,CLR,0.00,VWS V14.00,2013-07-15 13:07:00,
2013-07-15 09:12:00,76.3,75.4,30.34,NNW,336,0.0,0.0,97,0.00,,CLR,0.00,VWS V14.00,2013-07-15 13:12:00,
2013-07-15 09:17:00,76.2,75.0,30.34,NNW,348,0.0,0.0,96,0.00,,CLR,0.00,VWS V14.00,2013-07-15 13:17:00,
2013-07-15 09:22:00,76.0,74.8,30.34,North,351,0.0,0.0,96,0.00,,CLR,0.00,VWS V14.00,2013-07-15 13:22:00,
2013-07-15 09:27:00,76.4,75.8,30.34,NNW,340,0.0,0.0,98,0.00,,CLR,0.00,VWS V14.00,2013-07-15 13:27:00,
2013-07-15 09:32:00,76.9,75.7,30.34,NNW,338,0.0,0.0,96,0.00,,CLR,0.00,VWS V14.00,2013-07-15 13:32:00,
2013-07-15 09:37:00,77.1,75.6,30.34,NNW,338,0.0,0.0,95,0.00,,CLR,0.00,VWS V14.00,2013-07-15 13:37:00,
2013-07-15 09:42:00,77.4,75.9,30.34,NNW,335,0.0,0.0,95,0.00,,CLR,0.00,VWS V14.00,2013-07-15 13:42:00,
2013-07-15 09:47:00,77.7,75.8,30.34,NNW,333,0.0,0.0,94,0.00,,CLR,0.00,VWS V14.00,2013-07-15 13:47:00,
2013-07-15 09:52:00,78.2,75.7,30.34,North,349,0.0,0.0,92,0.00,,CLR,0.00,VWS V14.00,2013-07-15 13:52:00,
2013-07-15 09:57:00,78.8,75.9,30.34,NNW,343,0.0,0.0,91,0.00,,CLR,0.00,VWS V14.00,2013-07-15 13:57:00,
2013-07-15 10:02:00,79.3,76.4,30.34,NNW,339,0.0,0.0,91,0.00,,CLR,0.00,VWS V14.00,2013-07-15 14:02:00,
2013-07-15 10:07:00,79.4,76.6,30.34,NNW,329,0.0,1.0,91,0.00,,CLR,0.00,VWS V14.00,2013-07-15 14:07:00,
2013-07-15 10:12:00,79.7,76.8,30.34,NNW,336,0.0,1.0,91,0.00,,CLR,0.00,VWS V14.00,2013-07-15 14:12:00,
2013-07-15 10:17:00,80.3,77.4,30.34,NNW,333,0.0,1.0,91,0.00,,CLR,0.00,VWS V14.00,2013-07-15 14:17:00,
2013-07-15 10:22:00,80.9,77.4,30.34,NNW,341,0.0,1.0,89,0.00,,CLR,0.00,VWS V14.00,2013-07-15 14:22:00,
2013-07-15 10:27:00,81.1,76.2,30.34,NNW,329,0.0,1.0,85,0.00,,CLR,0.00,VWS V14.00,2013-07-15 14:27:00,
2013-07-15 10:32:00,81.4,76.5,30.34,NNW,330,0.0,0.0,85,0.00,,CLR,0.00,VWS V14.00,2013-07-15 14:32:00,
2013-07-15 10:37:00,82.1,77.5,30.34,North,349,0.0,1.0,86,0.00,,CLR,0.00,VWS V14.00,2013-07-15 14:37:00,
2013-07-15 10:42:00,82.6,76.9,30.34,NNE,15,0.0,1.0,83,0.00,,CLR,0.00,VWS V14.00,2013-07-15 14:42:00,
2013-07-15 10:47:00,83.1,76.3,30.34,NNW,333,0.0,1.0,80,0.00,,CLR,0.00,VWS V14.00,2013-07-15 14:47:00,
2013-07-15 10:52:00,83.6,77.2,30.34,NE,34,0.0,1.0,81,0.00,,CLR,0.00,VWS V14.00,2013-07-15 14:52:00,
2013-07-15 10:57:00,83.8,78.1,30.34,NNW,333,0.0,1.0,83,0.00,,CLR,0.00,VWS V14.00,2013-07-15 14:57:00,
2013-07-15 11:02:00,83.4,76.6,30.34,NW,325,0.0,1.0,80,0.00,,FEW016,0.00,VWS V14.00,2013-07-15 15:02:00,
2013-07-15 11:07:00,82.8,76.0,30.34,NNW,327,0.0,1.0,80,0.00,,FEW016,0.00,VWS V14.00,2013-07-15 15:07:00,
2013-07-15 11:12:00,81.8,76.1,30.34,NW,326,0.0,1.0,83,0.00,,FEW016,0.00,VWS V14.00,2013-07-15 15:12:00,
2013-07-15 11:17:00,81.6,75.6,30.34,NNW,327,0.0,1.0,82,0.00,,FEW016,0.00,VWS V14.00,2013-07-15 15:17:00,
2013-07-15 11:22:00,82.1,75.7,30.34,SSW,200,0.0,1.0,81,0.00,,FEW016,0.00,VWS V14.00,2013-07-15 15:22:00,
2013-07-15 11:27:00,82.8,75.2,30.34,South,184,0.0,1.0,78,0.00,,FEW016,0.00,VWS V14.00,2013-07-15 15:27:00,
2013-07-15 11:32:00,83.2,76.4,30.34,SSW,195,0.0,1.0,80,0.00,,FEW016,0.00,VWS V14.00,2013-07-15 15:32:00,
2013-07-15 11:37:00,83.7,75.3,30.34,South,191,0.0,1.0,76,0.00,,FEW016,0.00,VWS V14.00,2013-07-15 15:37:00,
2013-07-15 11:42:00,84.3,77.8,30.34,South,191,0.0,1.0,81,0.00,,FEW016,0.00,VWS V14.00,2013-07-15 15:42:00,
2013-07-15 11:48:00,84.8,77.6,30.34,South,173,0.0,1.0,79,0.00,,FEW016,0.00,VWS V14.00,2013-07-15 15:48:00,
2013-07-15 11:53:00,84.7,75.5,30.34,South,173,0.0,1.0,74,0.00,,FEW016,0.00,VWS V14.00,2013-07-15 15:53:00,
2013-07-15 11:58:00,84.5,75.7,30.34,South,173,0.0,1.0,75,0.00,,FEW016,0.00,VWS V14.00,2013-07-15 15:58:00,
2013-07-15 12:03:00,85.0,77.0,30.33,SW,230,0.0,1.0,77,0.00,,SCT031,0.00,VWS V14.00,2013-07-15 16:03:00,
2013-07-15 12:08:00,85.3,75.2,30.33,WNW,298,0.0,1.0,72,0.00,,SCT031,0.00,VWS V14.00,2013-07-15 16:08:00,
2013-07-15 12:13:00,85.0,75.0,30.33,West,260,1.0,1.0,72,0.00,,SCT031,0.00,VWS V14.00,2013-07-15 16:13:00,
2013-07-15 12:18:00,84.9,76.1,30.33,West,272,0.0,1.0,75,0.00,,SCT031,0.00,VWS V14.00,2013-07-15 16:18:00,
2013-07-15 12:23:00,85.0,75.0,30.33,WNW,303,0.0,1.0,72,0.00,,SCT031,0.00,VWS V14.00,2013-07-15 16:23:00,
2013-07-15 12:28:00,84.7,74.3,30.33,SW,229,0.0,1.0,71,0.00,,SCT031,0.00,VWS V14.00,2013-07-15 16:28:00,
2013-07-15 12:33:00,84.8,75.6,30.33,SW,221,0.0,1.0,74,0.00,,SCT031,0.00,VWS V14.00,2013-07-15 16:33:00,
2013-07-15 12:38:00,85.4,77.8,30.33,NW,323,0.0,1.0,78,0.00,,SCT031,0.00,VWS V14.00,2013-07-15 16:38:00,
2013-07-15 12:43:00,85.0,76.6,30.33,NW,325,0.0,1.0,76,0.00,,SCT031,0.00,VWS V14.00,2013-07-15 16:43:00,
2013-07-15 12:48:00,84.7,76.3,30.33,NW,325,0.0,1.0,76,0.00,,SCT031,0.00,VWS V14.00,2013-07-15 16:48:00,
2013-07-15 12:53:00,84.2,74.2,30.32,WNW,303,0.0,1.0,72,0.00,,SCT031,0.00,VWS V14.00,2013-07-15 16:53:00,
2013-07-15 12:58:00,84.2,74.6,30.32,WNW,303,0.0,1.0,73,0.00,,SCT031,0.00,VWS V14.00,2013-07-15 16:58:00,
2013-07-15 13:03:00,84.4,74.0,30.32,WNW,303,0.0,0.0,71,0.00,,BKN042,0.00,VWS V14.00,2013-07-15 17:03:00,
2013-07-15 13:08:00,84.9,74.0,30.32,West,259,0.0,0.0,70,0.00,,BKN042,0.00,VWS V14.00,2013-07-15 17:08:00,
2013-07-15 13:13:00,85.7,75.2,30.32,WSW,240,0.0,0.0,71,0.00,,BKN042,0.00,VWS V14.00,2013-07-15 17:13:00,
2013-07-15 13:18:00,86.3,74.9,30.31,SE,146,0.0,1.0,69,0.00,,BKN042,0.00,VWS V14.00,2013-07-15 17:18:00,
2013-07-15 13:23:00,86.9,78.0,30.31,West,275,0.0,1.0,75,0.00,,BKN042,0.00,VWS V14.00,2013-07-15 17:23:00,
2013-07-15 13:28:00,87.3,75.0,30.31,ESE,122,0.0,1.0,67,0.00,,BKN042,0.00,VWS V14.00,2013-07-15 17:28:00,
2013-07-15 13:33:00,87.3,75.9,30.31,ESE,107,0.0,1.0,69,0.00,,BKN042,0.00,VWS V14.00,2013-07-15 17:33:00,
2013-07-15 13:38:00,87.0,77.3,30.31,ESE,113,1.0,1.0,73,0.00,,BKN042,0.00,VWS V14.00,2013-07-15 17:38:00,
2013-07-15 13:43:00,86.8,73.6,30.31,East,86,0.0,1.0,65,0.00,,BKN042,0.00,VWS V14.00,2013-07-15 17:43:00,
2013-07-15 13:48:00,86.9,72.8,30.31,South,169,0.0,1.0,63,0.00,,BKN042,0.00,VWS V14.00,2013-07-15 17:48:00,
2013-07-15 13:54:00,87.5,74.8,30.31,West,263,0.0,1.0,66,0.00,,BKN042,0.00,VWS V14.00,2013-07-15 17:54:00,
2013-07-15 13:59:00,88.0,75.2,30.30,NNE,13,0.0,1.0,66,0.00,,BKN042,0.00,VWS V14.00,2013-07-15 17:59:00,
2013-07-15 14:04:00,88.1,73.9,30.30,WSW,246,0.0,0.0,63,0.00,,SCT039,0.00,VWS V14.00,2013-07-15 18:04:00,
2013-07-15 14:09:00,88.1,72.0,30.30,ENE,67,0.0,0.0,59,0.00,,SCT039,0.00,VWS V14.00,2013-07-15 18:09:00,
2013-07-15 14:14:00,87.7,73.1,30.30,East,101,0.0,0.0,62,0.00,,SCT039,0.00,VWS V14.00,2013-07-15 18:14:00,
2013-07-15 14:19:00,87.0,72.9,30.30,East,101,0.0,0.0,63,0.00,,SCT039,0.00,VWS V14.00,2013-07-15 18:19:00,
2013-07-15 14:24:00,87.2,74.0,30.30,SE,139,0.0,1.0,65,0.00,,SCT039,0.00,VWS V14.00,2013-07-15 18:24:00,
2013-07-15 14:29:00,87.6,73.9,30.30,SE,124,0.0,1.0,64,0.00,,SCT039,0.00,VWS V14.00,2013-07-15 18:29:00,
2013-07-15 14:34:00,87.7,73.1,30.30,East,80,0.0,0.0,62,0.00,,SCT039,0.00,VWS V14.00,2013-07-15 18:34:00,
2013-07-15 14:39:00,87.5,71.4,30.30,SE,126,0.0,0.0,59,0.00,,SCT039,0.00,VWS V14.00,2013-07-15 18:39:00,
2013-07-15 14:44:00,87.1,73.4,30.29,SE,126,0.0,0.0,64,0.00,,SCT039,0.00,VWS V14.00,2013-07-15 18:44:00,
2013-07-15 14:49:00,86.8,74.1,30.29,ESE,107,0.0,0.0,66,0.00,,SCT039,0.00,VWS V14.00,2013-07-15 18:49:00,
2013-07-15 14:54:00,86.8,73.6,30.29,SE,143,0.0,0.0,65,0.00,,SCT039,0.00,VWS V14.00,2013-07-15 18:54:00,
2013-07-15 14:59:00,87.5,75.6,30.29,South,186,0.0,0.0,68,0.00,,SCT039,0.00,VWS V14.00,2013-07-15 18:59:00,
2013-07-15 15:04:00,88.3,78.1,30.29,ESE,117,0.0,0.0,72,0.00,,BKN045,0.00,VWS V14.00,2013-07-15 19:04:00,
2013-07-15 15:09:00,88.1,77.1,30.29,ESE,117,0.0,0.0,70,0.00,,BKN045,0.00,VWS V14.00,2013-07-15 19:09:00,
2013-07-15 15:14:00,88.3,76.0,30.29,East,84,0.0,0.0,67,0.00,,BKN045,0.00,VWS V14.00,2013-07-15 19:14:00,
2013-07-15 15:20:00,88.2,73.6,30.28,SE,136,5.0,5.0,62,0.00,,BKN045,0.00,VWS V14.00,2013-07-15 19:20:00,
2013-07-15 15:25:00,87.3,72.7,30.28,ENE,58,1.0,5.0,62,0.00,,BKN045,0.00,VWS V14.00,2013-07-15 19:25:00,
2013-07-15 15:30:00,86.9,74.6,30.28,East,92,0.0,5.0,67,0.00,,BKN045,0.00,VWS V14.00,2013-07-15 19:30:00,
2013-07-15 15:35:00,87.2,74.9,30.28,SE,138,0.0,1.0,67,0.00,,BKN045,0.00,VWS V14.00,2013-07-15 19:35:00,
2013-07-15 15:40:00,87.8,72.2,30.28,SE,136,0.0,5.0,60,0.00,,BKN045,0.00,VWS V14.00,2013-07-15 19:40:00,
2013-07-15 15:45:00,88.3,73.6,30.28,SE,127,2.0,5.0,62,0.00,,BKN045,0.00,VWS V14.00,2013-07-15 19:45:00,
2013-07-15 15:50:00,88.4,74.2,30.28,SSE,152,3.0,5.0,63,0.00,,BKN045,0.00,VWS V14.00,2013-07-15 19:50:00,
2013-07-15 15:55:00,88.2,74.0,30.28,East,90,2.0,7.0,63,0.00,,BKN045,0.00,VWS V14.00,2013-07-15 19:55:00,
2013-07-15 16:00:00,88.1,72.5,30.28,SSE,156,2.0,7.0,60,0.00,,BKN045,0.00,VWS V14.00,2013-07-15 20:00:00,
2013-07-15 16:05:00,88.4,72.8,30.27,SE,126,0.0,4.0,60,0.00,,BKN047,0.00,VWS V14.00,2013-07-15 20:05:00,
2013-07-15 16:10:00,88.6,73.9,30.27,SE,146,3.0,4.0,62,0.00,,BKN047,0.00,VWS V14.00,2013-07-15 20:10:00,
2013-07-15 16:15:00,88.9,74.7,30.27,SE,133,1.0,4.0,63,0.00,,BKN047,0.00,VWS V14.00,2013-07-15 20:15:00,
2013-07-15 16:20:00,89.0,72.3,30.27,East,84,2.0,6.0,58,0.00,,BKN047,0.00,VWS V14.00,2013-07-15 20:20:00,
2013-07-15 16:25:00,89.1,76.3,30.27,ESE,111,1.0,6.0,66,0.00,,BKN047,0.00,VWS V14.00,2013-07-15 20:25:00,
2013-07-15 16:30:00,89.3,73.1,30.27,South,185,2.0,6.0,59,0.00,,BKN047,0.00,VWS V14.00,2013-07-15 20:30:00,
2013-07-15 16:35:00,89.5,72.8,30.27,ESE,103,2.0,5.0,58,0.00,,BKN047,0.00,VWS V14.00,2013-07-15 20:35:00,
2013-07-15 16:40:00,89.3,73.1,30.27,ESE,107,1.0,5.0,59,0.00,,BKN047,0.00,VWS V14.00,2013-07-15 20:40:00,
2013-07-15 16:45:00,89.5,72.3,30.27,ESE,109,0.0,5.0,57,0.00,,BKN047,0.00,VWS V14.00,2013-07-15 20:45:00,
2013-07-15 16:50:00,89.7,74.0,30.27,SE,131,0.0,5.0,60,0.00,,BKN047,0.00,VWS V14.00,2013-07-15 20:50:00,
2013-07-15 16:55:00,90.0,75.2,30.27,SE,136,1.0,5.0,62,0.00,,BKN047,0.00,VWS V14.00,2013-07-15 20:55:00,
2013-07-15 17:00:00,90.1,75.3,30.27,East,90,1.0,5.0,62,0.00,,BKN047,0.00,VWS V14.00,2013-07-15 21:00:00,
2013-07-15 17:05:00,89.6,73.4,30.27,SE,134,1.0,4.0,59,0.00,,FEW055,0.00,VWS V14.00,2013-07-15 21:05:00,
2013-07-15 17:10:00,89.1,73.9,30.27,ESE,109,0.0,6.0,61,0.00,,FEW055,0.00,VWS V14.00,2013-07-15 21:10:00,
2013-07-15 17:15:00,89.0,74.8,30.27,SE,137,0.0,6.0,63,0.00,,FEW055,0.00,VWS V14.00,2013-07-15 21:15:00,
2013-07-15 17:20:00,88.9,72.7,30.26,ESE,112,0.0,6.0,59,0.00,,FEW055,0.00,VWS V14.00,2013-07-15 21:20:00,
2013-07-15 17:25:00,88.8,74.6,30.26,SE,144,0.0,6.0,63,0.00,,FEW055,0.00,VWS V14.00,2013-07-15 21:25:00,
2013-07-15 17:30:00,89.0,74.3,30.26,SE,144,0.0,0.0,62,0.00,,FEW055,0.00,VWS V14.00,2013-07-15 21:30:00,
2013-07-15 17:35:00,89.2,75.0,30.26,SE,131,2.0,4.0,63,0.00,,FEW055,0.00,VWS V14.00,2013-07-15 21:35:00,
2013-07-15 17:40:00,88.8,75.1,30.26,SE,146,1.0,5.0,64,0.00,,FEW055,0.00,VWS V14.00,2013-07-15 21:40:00,
2013-07-15 17:45:00,88.8,75.1,30.26,SE,138,3.0,5.0,64,0.00,,FEW055,0.00,VWS V14.00,2013-07-15 21:45:00,
2013-07-15 17:51:00,88.5,73.3,30.26,East,83,0.0,5.0,61,0.00,,FEW055,0.00,VWS V14.00,2013-07-15 21:51:00,
2013-07-15 17:56:00,88.7,73.5,30.26,SE,144,1.0,5.0,61,0.00,,FEW055,0.00,VWS V14.00,2013-07-15 21:56:00,
2013-07-15 18:01:00,88.8,74.6,30.26,SSE,167,2.0,3.0,63,0.00,,CLR,0.00,VWS V14.00,2013-07-15 22:01:00,
2013-07-15 18:06:00,89.0,74.8,30.26,SE,145,1.0,4.0,63,0.00,,CLR,0.00,VWS V14.00,2013-07-15 22:06:00,
2013-07-15 18:11:00,89.0,73.8,30.26,ESE,119,3.0,4.0,61,0.00,,CLR,0.00,VWS V14.00,2013-07-15 22:11:00,
2013-07-15 18:16:00,88.8,73.1,30.26,SE,136,1.0,4.0,60,0.00,,CLR,0.00,VWS V14.00,2013-07-15 22:16:00,
2013-07-15 18:21:00,88.6,72.4,30.26,SE,140,2.0,4.0,59,0.00,,CLR,0.00,VWS V14.00,2013-07-15 22:21:00,
2013-07-15 18:26:00,88.4,73.7,30.26,South,175,2.0,4.0,62,0.00,,CLR,0.00,VWS V14.00,2013-07-15 22:26:00,
2013-07-15 18:31:00,88.6,74.4,30.25,SSW,207,1.0,2.0,63,0.00,,CLR,0.00,VWS V14.00,2013-07-15 22:31:00,
2013-07-15 18:36:00,88.4,73.7,30.25,South,173,2.0,3.0,62,0.00,,CLR,0.00,VWS V14.00,2013-07-15 22:36:00,
2013-07-15 18:41:00,88.2,74.5,30.25,SSE,165,1.0,4.0,64,0.00,,CLR,0.00,VWS V14.00,2013-07-15 22:41:00,
2013-07-15 18:46:00,88.0,74.3,30.26,SSE,151,1.0,4.0,64,0.00,,CLR,0.00,VWS V14.00,2013-07-15 22:46:00,
2013-07-15 18:51:00,87.9,74.2,30.26,SE,134,1.0,4.0,64,0.00,,CLR,0.00,VWS V14.00,2013-07-15 22:51:00,
2013-07-15 18:56:00,87.7,75.4,30.26,SE,143,2.0,4.0,67,0.00,,CLR,0.00,VWS V14.00,2013-07-15 22:56:00,
2013-07-15 19:01:00,87.4,75.1,30.26,SSE,147,0.0,3.0,67,0.00,,CLR,0.00,VWS V14.00,2013-07-15 23:01:00,
2013-07-15 19:06:00,87.3,75.4,30.25,SE,126,0.0,3.0,68,0.00,,CLR,0.00,VWS V14.00,2013-07-15 23:06:00,
2013-07-15 19:11:00,87.3,75.0,30.26,SE,126,0.0,3.0,67,0.00,,CLR,0.00,VWS V14.00,2013-07-15 23:11:00,
2013-07-15 19:16:00,87.3,75.4,30.26,SE,126,0.0,3.0,68,0.00,,CLR,0.00,VWS V14.00,2013-07-15 23:16:00,
2013-07-15 19:21:00,87.1,76.1,30.26,SE,127,0.0,3.0,70,0.00,,CLR,0.00,VWS V14.00,2013-07-15 23:21:00,
2013-07-15 19:26:00,86.9,75.9,30.26,SE,127,0.0,3.0,70,0.00,,CLR,0.00,VWS V14.00,2013-07-15 23:26:00,
2013-07-15 19:31:00,86.7,75.3,30.26,SE,130,1.0,2.0,69,0.00,,CLR,0.00,VWS V14.00,2013-07-15 23:31:00,
2013-07-15 19:36:00,86.3,75.4,30.25,SE,130,1.0,3.0,70,0.00,,CLR,0.00,VWS V14.00,2013-07-15 23:36:00,
2013-07-15 19:41:00,85.7,75.2,30.25,SE,132,1.0,4.0,71,0.00,,CLR,0.00,VWS V14.00,2013-07-15 23:41:00,
2013-07-15 19:46:00,85.2,75.2,30.26,SE,136,0.0,4.0,72,0.00,,CLR,0.00,VWS V14.00,2013-07-15 23:46:00,
2013-07-15 19:51:00,84.8,75.2,30.26,SE,136,0.0,4.0,73,0.00,,CLR,0.00,VWS V14.00,2013-07-15 23:51:00,
2013-07-15 19:56:00,84.4,76.0,30.25,SE,137,0.0,4.0,76,0.00,,CLR,0.00,VWS V14.00,2013-07-15 23:56:00,
2013-07-15 20:01:00,84.1,75.3,30.26,SE,138,0.0,1.0,75,0.00,,CLR,0.00,VWS V14.00,2013-07-16 00:01:00,
2013-07-15 20:06:00,83.8,75.4,30.26,SE,138,0.0,1.0,76,0.00,,CLR,0.00,VWS V14.00,2013-07-16 00:06:00,
2013-07-15 20:11:00,83.4,75.8,30.25,SE,138,0.0,1.0,78,0.00,,CLR,0.00,VWS V14.00,2013-07-16 00:11:00,
2013-07-15 20:16:00,83.0,76.6,30.25,SE,138,0.0,1.0,81,0.00,,CLR,0.00,VWS V14.00,2013-07-16 00:16:00,
2013-07-15 20:21:00,82.5,76.1,30.25,SE,138,0.0,1.0,81,0.00,,CLR,0.00,VWS V14.00,2013-07-16 00:21:00,
2013-07-15 20:26:00,82.1,76.1,30.25,SE,138,0.0,1.0,82,0.00,,CLR,0.00,VWS V14.00,2013-07-16 00:26:00,
2013-07-15 20:32:00,81.4,75.7,30.25,SE,138,0.0,0.0,83,0.00,,CLR,0.00,VWS V14.00,2013-07-16 00:32:00,
2013-07-15 20:37:00,80.6,75.7,30.26,SE,138,0.0,0.0,85,0.00,,CLR,0.00,VWS V14.00,2013-07-16 00:37:00,
2013-07-15 20:42:00,80.0,75.4,30.25,SE,138,0.0,0.0,86,0.00,,CLR,0.00,VWS V14.00,2013-07-16 00:42:00,
2013-07-15 20:47:00,79.4,75.2,30.25,SE,138,0.0,0.0,87,0.00,,CLR,0.00,VWS V14.00,2013-07-16 00:47:00,
2013-07-15 20:52:00,78.9,75.1,30.25,SE,138,0.0,0.0,88,0.00,,CLR,0.00,VWS V14.00,2013-07-16 00:52:00,
2013-07-15 20:57:00,78.5,75.0,30.25,SE,138,0.0,0.0,89,0.00,,CLR,0.00,VWS V14.00,2013-07-16 00:57:00,
2013-07-15 21:02:00,78.2,75.0,30.25,SE,138,0.0,0.0,90,0.00,,CLR,0.00,VWS V14.00,2013-07-16 01:02:00,
2013-07-15 21:07:00,77.9,75.1,30.26,SE,138,0.0,0.0,91,0.00,,CLR,0.00,VWS V14.00,2013-07-16 01:07:00,
2013-07-15 21:12:00,77.4,75.2,30.26,SE,136,0.0,1.0,93,0.00,,CLR,0.00,VWS V14.00,2013-07-16 01:12:00,
2013-07-15 21:17:00,77.0,74.8,30.26,SE,127,0.0,1.0,93,0.00,,CLR,0.00,VWS V14.00,2013-07-16 01:17:00,
2013-07-15 21:22:00,76.7,74.5,30.26,SE,127,0.0,1.0,93,0.00,,CLR,0.00,VWS V14.00,2013-07-16 01:22:00,
2013-07-15 21:27:00,76.4,74.6,30.26,SE,127,0.0,1.0,94,0.00,,CLR,0.00,VWS V14.00,2013-07-16 01:27:00,
2013-07-15 21:32:00,76.2,74.3,30.27,SE,127,0.0,0.0,94,0.00,,CLR,0.00,VWS V14.00,2013-07-16 01:32:00,
2013-07-15 21:37:00,76.0,74.2,30.27,SE,127,0.0,0.0,94,0.00,,CLR,0.00,VWS V14.00,2013-07-16 01:37:00,
2013-07-15 21:42:00,75.8,74.3,30.27,SE,127,0.0,0.0,95,0.00,,CLR,0.00,VWS V14.00,2013-07-16 01:42:00,
2013-07-15 21:47:00,75.5,74.0,30.27,SE,127,0.0,0.0,95,0.00,,CLR,0.00,VWS V14.00,2013-07-16 01:47:00,
2013-07-15 21:52:00,75.3,74.1,30.27,SE,127,0.0,0.0,96,0.00,,CLR,0.00,VWS V14.00,2013-07-16 01:52:00,
2013-07-15 21:57:00,75.1,74.2,30.27,SE,127,0.0,0.0,97,0.00,,CLR,0.00,VWS V14.00,2013-07-16 01:57:00,
2013-07-15 22:03:00,74.8,73.9,30.27,SE,127,0.0,0.0,97,0.00,,CLR,0.00,VWS V14.00,2013-07-16 02:03:00,
2013-07-15 22:08:00,74.6,73.7,30.27,SE,127,0.0,0.0,97,0.00,,CLR,0.00,VWS V14.00,2013-07-16 02:08:00,
2013-07-15 22:13:00,74.4,73.5,30.27,SE,127,0.0,0.0,97,0.00,,CLR,0.00,VWS V14.00,2013-07-16 02:13:00,
2013-07-15 22:18:00,74.3,73.7,30.27,SE,127,0.0,0.0,98,0.00,,CLR,0.00,VWS V14.00,2013-07-16 02:18:00,
2013-07-15 22:23:00,74.1,73.5,30.27,SE,127,0.0,0.0,98,0.00,,CLR,0.00,VWS V14.00,2013-07-16 02:23:00,
2013-07-15 22:28:00,74.0,73.4,30.27,SE,127,0.0,0.0,98,0.00,,CLR,0.00,VWS V14.00,2013-07-16 02:28:00,
2013-07-15 22:34:00,73.9,73.3,30.27,SE,127,0.0,0.0,98,0.00,,CLR,0.00,VWS V14.00,2013-07-16 02:34:00,
2013-07-15 22:39:00,73.7,73.1,30.27,SE,127,0.0,0.0,98,0.00,,CLR,0.00,VWS V14.00,2013-07-16 02:39:00,
2013-07-15 22:44:00,73.5,72.9,30.27,SE,127,0.0,0.0,98,0.00,,CLR,0.00,VWS V14.00,2013-07-16 02:44:00,
2013-07-15 22:49:00,73.4,73.1,30.27,SE,127,0.0,0.0,99,0.00,,CLR,0.00,VWS V14.00,2013-07-16 02:49:00,
2013-07-15 22:54:00,73.4,73.1,30.27,SE,127,0.0,0.0,99,0.00,,CLR,0.00,VWS V14.00,2013-07-16 02:54:00,
2013-07-15 22:59:00,73.3,73.0,30.27,SE,127,0.0,0.0,99,0.00,,CLR,0.00,VWS V14.00,2013-07-16 02:59:00,
2013-07-15 23:04:00,73.2,72.9,30.27,SE,127,0.0,0.0,99,0.00,,CLR,0.00,VWS V14.00,2013-07-16 03:04:00,
2013-07-15 23:09:00,73.1,72.8,30.27,SE,127,0.0,0.0,99,0.00,,CLR,0.00,VWS V14.00,2013-07-16 03:09:00,
2013-07-15 23:14:00,72.9,72.6,30.27,SE,127,0.0,0.0,99,0.00,,CLR,0.00,VWS V14.00,2013-07-16 03:14:00,
2013-07-15 23:19:00,72.6,72.3,30.27,SE,127,0.0,0.0,99,0.00,,CLR,0.00,VWS V14.00,2013-07-16 03:19:00,
2013-07-15 23:24:00,72.5,72.2,30.27,SE,127,0.0,0.0,99,0.00,,CLR,0.00,VWS V14.00,2013-07-16 03:24:00,
2013-07-15 23:29:00,72.4,72.1,30.27,SE,127,0.0,0.0,99,0.00,,CLR,0.00,VWS V14.00,2013-07-16 03:29:00,
2013-07-15 23:34:00,72.4,72.4,30.27,SE,127,0.0,0.0,100,0.00,,CLR,0.00,VWS V14.00,2013-07-16 03:34:00,
2013-07-15 23:39:00,72.3,72.3,30.27,SE,127,0.0,0.0,100,0.00,,CLR,0.00,VWS V14.00,2013-07-16 03:39:00,
2013-07-15 23:44:00,72.3,72.3,30.27,SE,127,0.0,0.0,100,0.00,,CLR,0.00,VWS V14.00,2013-07-16 03:44:00,
2013-07-15 23:49:00,72.3,72.3,30.27,SE,127,0.0,0.0,100,0.00,,CLR,0.00,VWS V14.00,2013-07-16 03:49:00,
2013-07-15 23:54:00,72.2,72.2,30.27,SE,127,0.0,0.0,100,0.00,,CLR,0.00,VWS V14.00,2013-07-16 03:54:00,
2013-07-15 23:59:00,72.1,72.1,30.27,SE,127,0.0,0.0,100,0.00,,CLR,0.00,VWS V14.00,2013-07-16 03:59:00,